This demonstration page uses our WeatherBlox Daily Observations layout. Learn more.

Left ArrowRight Arrow

Hourly Observations for February 3, 2019

Temp ( °F °C ) Dew Point ( °F °C ) Humidity (%) Winds ( mph kmh ) Pressure ( in mb ) Visibility ( mi km ) Precip ( " mm )
12:16 am 00:16 Clear 36 2 36 2 100 100 S 6 9 30.08 1019 4 6 N/A
12:36 am 00:36 Partly Cloudy 36 2 36 2 100 100 S 6 9 30.08 1019 4 6 N/A
12:55 am 00:55 Partly Cloudy 36 2 36 2 100 100 S 7 11 30.07 1018 5 8 N/A
1:16 am 01:16 Mostly Cloudy 37 3 37 3 100 100 S 7 11 30.06 1018 5 8 N/A
1:36 am 01:36 Cloudy 37 3 37 3 100 100 S 7 11 30.06 1018 5 8 N/A
1:55 am 01:55 Cloudy 37 3 37 3 100 100 S 6 9 30.05 1018 5 8 N/A
2:16 am 02:16 Cloudy 37 3 37 3 100 100 S 8 13 30.05 1018 5 8 N/A
2:36 am 02:36 Cloudy 37 3 37 3 100 100 S 8 13 30.05 1018 5 8 N/A
2:55 am 02:55 Mostly Cloudy 37 3 37 3 100 100 S 8 13 30.05 1018 7 11 N/A
3:16 am 03:16 Mostly Cloudy 37 3 37 3 100 100 S 8 13 30.04 1017 7 11 N/A
3:36 am 03:36 Cloudy 37 3 37 3 100 100 S 8 13 30.04 1017 7 11 N/A
3:55 am 03:55 Cloudy 37 3 37 3 100 100 S 8 13 30.04 1017 7 11 N/A
4:16 am 04:16 Cloudy 37 3 37 3 100 100 S 8 13 30.04 1017 7 11 N/A
4:36 am 04:36 Cloudy 37 3 37 3 100 100 S 8 13 30.04 1017 7 11 N/A
4:55 am 04:55 Cloudy 37 3 37 3 100 100 S 6 9 30.04 1017 7 11 N/A
5:16 am 05:16 Cloudy 37 3 37 3 100 100 S 6 9 30.04 1017 10 16 N/A
5:36 am 05:36 Cloudy 37 3 37 3 100 100 S 7 11 30.04 1017 10 16 N/A
5:55 am 05:55 Cloudy 37 3 37 3 100 100 S 7 11 30.04 1017 10 16 N/A
6:16 am 06:16 Cloudy 39 4 39 4 100 100 S 3 6 30.05 1018 10 16 N/A
6:36 am 06:36 Cloudy 37 3 37 3 100 100 S 5 7 30.05 1018 10 16 N/A
6:55 am 06:55 Cloudy 37 3 37 3 100 100 S 6 9 30.05 1018 10 16 N/A
7:16 am 07:16 Cloudy 37 3 37 3 100 100 S 7 11 30.05 1018 10 16 N/A
7:35 am 07:35 Cloudy 39 4 39 4 100 100 S 7 11 30.05 1018 10 16 N/A
7:55 am 07:55 Cloudy 39 4 39 4 100 100 S 7 11 30.05 1018 10 16 N/A
8:16 am 08:16 Cloudy 39 4 39 4 100 100 S 7 11 30.05 1018 10 16 N/A
8:35 am 08:35 Cloudy 39 4 39 4 100 100 S 8 13 30.04 1017 10 16 N/A
8:55 am 08:55 Cloudy 39 4 39 4 100 100 S 9 15 30.04 1017 10 16 N/A
9:16 am 09:16 Cloudy 39 4 39 4 100 100 S 9 15 30.04 1017 10 16 N/A
9:35 am 09:35 Cloudy 39 4 39 4 100 100 S 9 15 30.04 1017 10 16 N/A
9:55 am 09:55 Mostly Cloudy 41 5 39 4 93 93 S 9 15 30.04 1017 10 16 N/A
10:16 am 10:16 Partly Cloudy 43 6 41 5 93 93 S 9 15 30.03 1017 10 16 N/A
10:35 am 10:35 Sunny 43 6 41 5 93 93 S 9 15 30.03 1017 10 16 N/A
10:55 am 10:55 Mostly Cloudy 45 7 41 5 87 87 S 10 17 30.03 1017 10 16 N/A
11:16 am 11:16 Mostly Cloudy 46 8 43 6 87 87 S 9 15 30.02 1016 10 16 N/A
11:35 am 11:35 Partly Cloudy 46 8 43 6 87 87 S 9 15 30.02 1016 10 16 N/A
11:55 am 11:55 Sunny 50 10 45 7 82 82 S 9 15 30.02 1017 10 16 N/A
12:16 pm 12:16 Mostly Cloudy 50 10 46 8 88 88 SSW 9 15 30.01 1016 10 16 N/A
12:35 pm 12:35 Mostly Cloudy 50 10 46 8 88 88 S 9 15 30.00 1016 10 16 N/A
12:56 pm 12:56 Partly Cloudy 54 12 48 9 82 82 SSW 7 11 29.98 1015 10 16 N/A
1:15 pm 13:15 Sunny 55 13 48 9 77 77 SSW 10 17 29.96 1015 10 16 N/A
1:35 pm 13:35 Sunny 55 13 50 10 82 82 S 8 13 29.96 1015 10 16 N/A
1:56 pm 13:56 Sunny 57 14 50 10 77 77 S 9 15 29.94 1014 10 16 N/A
2:16 pm 14:16 Sunny 59 15 52 11 77 77 SSW 7 11 29.93 1014 10 16 N/A
2:35 pm 14:35 Sunny 59 15 52 11 77 77 S 10 17 29.93 1014 10 16 N/A
2:56 pm 14:56 Sunny 59 15 52 11 77 77 SSW 8 13 29.92 1013 10 16 N/A
3:15 pm 15:15 Sunny 59 15 52 11 77 77 S 7 11 29.91 1013 10 16 N/A
3:35 pm 15:35 Sunny 59 15 52 11 77 77 S 9 15 29.91 1013 10 16 N/A
3:56 pm 15:56 Sunny 59 15 52 11 77 77 S 7 11 29.91 1013 10 16 N/A
4:15 pm 16:15 Sunny 59 15 52 11 77 77 S 7 11 29.91 1013 10 16 N/A
4:36 pm 16:36 Sunny 59 15 52 11 77 77 SSE 8 13 29.91 1013 10 16 N/A
4:55 pm 16:55 Sunny 57 14 52 11 82 82 SSE 6 9 29.92 1013 10 16 N/A
5:16 pm 17:16 Sunny 55 13 50 10 82 82 S 3 6 29.92 1013 10 16 N/A
5:36 pm 17:36 Sunny 54 12 50 10 88 88 N N/A 29.92 1013 10 16 N/A
5:55 pm 17:55 Sunny 52 11 48 9 88 88 SSE 5 7 29.93 1013 10 16 N/A
6:16 pm 18:16 Clear 52 11 48 9 88 88 SSE 5 7 29.93 1013 10 16 N/A
6:36 pm 18:36 Clear 50 10 46 8 88 88 S 6 9 29.93 1014 10 16 N/A
6:55 pm 18:55 Clear 48 9 46 8 94 94 S 6 9 29.94 1014 10 16 N/A
7:16 pm 19:16 Clear 46 8 45 7 93 93 S 5 7 29.95 1014 10 16 N/A
7:36 pm 19:36 Clear 46 8 45 7 93 93 SSE 6 9 29.95 1014 10 16 N/A
7:55 pm 19:55 Clear 45 7 45 7 100 100 S 5 7 29.95 1014 10 16 N/A
8:16 pm 20:16 Clear 46 8 45 7 93 93 S 7 11 29.95 1014 10 16 N/A
8:35 pm 20:35 Clear 46 8 45 7 93 93 S 6 9 29.95 1014 10 16 N/A
8:56 pm 20:56 Clear 46 8 45 7 93 93 S 6 9 29.95 1014 10 16 N/A
9:16 pm 21:16 Clear 45 7 45 7 100 100 S 5 7 29.95 1014 10 16 N/A
9:35 pm 21:35 Clear 45 7 43 6 93 93 S 5 7 29.95 1014 10 16 N/A
9:56 pm 21:56 Clear 43 6 43 6 100 100 SSE 7 11 29.94 1014 10 16 N/A
10:16 pm 22:16 Clear 43 6 43 6 100 100 SSE 7 11 29.94 1014 10 16 N/A
10:35 pm 22:35 Clear 45 7 43 6 93 93 SSE 7 11 29.94 1014 10 16 N/A
10:56 pm 22:56 Clear 45 7 45 7 100 100 S 7 11 29.94 1014 10 16 N/A
11:16 pm 23:16 Clear 45 7 45 7 100 100 S 8 13 29.94 1014 10 16 N/A
11:35 pm 23:35 Clear 45 7 45 7 100 100 S 8 13 29.94 1014 10 16 N/A
11:56 pm 23:56 Clear 45 7 45 7 100 100 S 7 11 29.94 1014 10 16 N/A

Powered by AerisWeather